Showing default

COSMOS 1285, 12627

Orbit data source: Space-Track

COSMOS 1285, 12627 is a payload satellite owned by PVO (CIS) in HEO that was launched on Tue, 04 Aug 1981 UTC via an MOLNIYA 8K78M launch vehicle from the Plesetsk Missile And Space Complex (PKMTR). Payload-class satellites include a variety of spacecraft equipped with specific instruments for various scientific and technological missions. These include communications satellites like Starlink; space stations such as the ISS; scientific satellites like the Hubble; Earth observation satellites from companies like Planet Labs, Umbra, and HawkEye 360; GPS; miniature CubeSats for education and research; and military/defense satellites.

Loading next visibility...
Identifier
12627, 1981-071A
Orbit
HEO
Country
Flag of CISCIS
Related business
Manufacturer
NPOL/KOMET
Mission
Spacecraft
Bus & Motor
OKO, Unknown motor
Mass
~1,250 kg wet, ~1,150 kg dry
Launch date (UTC)
1981-08-04 (44 years ago)
Launch vehicle
MOLNIYA 8K78M
Launch site
Plesetsk Missile And Space Complex (PKMTR)
Object type
Payload
Rocket body
Debris
Shape & HBR
Unknown
Radar Cross Section
Large (>1 m²)

Expand to show TLE details & history
Last TLE update: 12 hours ago

TLE from 12 hours ago
0 COSMOS 1285
1 12627U 81071A   25298.12904711 -.00000224  00000-0  00000-0 0  9995
2 12627  68.3332 106.2571 6137610 358.1732 145.3932  1.98056054241844
Epoch: 2025-10-25T03:05Z
TLE epoch observation values (Epoch: 2025-10-25T03:05:49.670Z)
Latitude
11.59649°
Longitude
-158.66329°
Altitude
35,693.594 km
Speed
2.017 km/s
True Right ascension
18h 46m 13s
True Declination
11° 35' 06"
Sunlit
Object was in daylight at epoch
Visualization orbit readout
Latitude
Unknown
Longitude
Unknown
Altitude
Unknown
Speed
Unknown
Apparent Right ascension
Unknown
Apparent Declination
Unknown
Sunlit
N/A
Visualization observer readout
Local Sidereal Time
09:55:50
Azimuth
Unknown
Elevation
Unknown
Doppler factor
Unknown
Orbital elements
Apogee altitude
36,843.369 km
Perigee altitude
3,966.537 km
Semi-major axis
26,783.09 km
Eccentricity
0.61376
Inclination
68.3332°
RAAN
106.2571°
Arg. of periapsis
358.1732°
True anomaly
169.31703°
Mean anomaly
145.3932°
Eccentric anomaly
158.36093°
Mean motion
0.49517 °/min
Orbital period
727.03 mins
BSTAR
0
Loading maneuver chart data...
Computing Atmospheric mass density...
Loading historical data...
Loading historical data...
Loading historical data...
Loading historical data...
Loading historical data...
Loading historical data...
Loading historical data...

Documentation

Showing up to 5 results
|